[[{"header":{"parameterUnit":"m.s-1","parameterCategory":1,"la1":30.2991,"la2":30.254,"lo1":-89.0895,"lo2":-89.0444,"dy":0.0017,"dx":0.0017,"nx":28,"ny":28,"refTime":"2024-08-03T09:00:00:Z","depth":0,"parameterNumber":2,"parameterNumberName":"U-component_of_WINDS"},"data":[0,0,0,0,0,0,0,0,0,0,0,0,0,0,0,0,0,0,0,0,0,0,0,0,0,0,0,0,0,0,0,0,0,0,0,0,0,0,0,0,0,0,0,0,0,0,0,0,0,0,0,0,0,0,0,0,0,0,-0.7258,-0.7255,0,-0.6983,-0.698,-0.6977,-0.6831,-0.683,-0.683,-0.683,-0.6552,-0.6545,-0.6538,0,0,0,0,0,0,0,0,0,0,0,0,0,-0.7663,-0.7656,-0.7258,-0.7255,-0.7251,-0.6984,-0.698,-0.6976,-0.6831,-0.683,-0.683,-0.683,-0.6554,-0.6546,-0.6537,0,0,0,0,0,0,0,0,0,0,0,0,0,-0.7448,-0.7654,-0.7259,-0.7147,-0.7134,-0.6984,-0.698,-0.6975,-0.6831,-0.683,-0.683,-0.683,-0.6557,-0.6546,-0.6536,-0.6478,0,0,-0.6503,-0.6498,0,0,0,0,0,0,0,0,-0.746,-0.7433,-0.7166,-0.7154,-0.7139,-0.6941,-0.702,-0.6809,-0.6831,-0.6946,-0.683,-0.6829,-0.6682,-0.6661,-0.661,-0.6465,-0.6453,-0.6502,-0.6496,-0.6491,-0.6488,0,0,0,0,0,0,0,-0.7475,-0.7444,-0.7149,-0.7163,-0.7146,-0.7112,-0.7081,-0.698,-0.682,-0.6936,-0.6925,-0.6894,-0.6674,-0.6621,-0.6603,-0.6449,-0.6502,-0.6493,-0.6486,-0.6482,-0.6245,-0.6245,0,0,0,0,0,0,-0.7508,-0.7458,-0.7158,-0.7141,-0.7302,-0.7105,-0.707,-0.7005,-0.682,-0.6792,-0.6894,-0.6888,-0.6639,-0.6615,-0.6592,-0.6513,-0.6491,-0.6481,-0.6475,-0.6244,-0.6245,-0.6245,0,0,0,0,0,0,-0.7517,-0.7482,-0.7169,-0.7296,-0.7254,-0.7098,-0.7026,-0.7,-0.6946,-0.6789,-0.676,-0.6869,-0.6638,-0.6607,-0.6508,-0.6501,-0.6476,-0.6466,-0.6244,-0.6244,-0.6245,-0.6354,0,0,0,0,0,0,-0.7529,-0.7486,-0.7462,-0.7297,-0.7247,-0.7088,-0.7026,-0.6995,-0.6928,-0.6917,-0.6757,-0.6731,-0.6635,-0.6525,-0.6497,-0.6486,-0.6458,-0.6244,-0.6244,-0.6245,-0.635,-0.6358,-0.6365,0,0,0,0,0,-0.7544,-0.7504,-0.7461,-0.7426,-0.7213,-0.7088,-0.706,-0.695,-0.6928,-0.6902,-0.6802,-0.6736,-0.6507,-0.6516,-0.6483,-0.6469,-0.6244,-0.6244,-0.6245,-0.6347,-0.6357,-0.6364,0,0,0,0,0,0,-0.7674,-0.748,-0.7431,-0.7336,-0.723,-0.7064,-0.7028,-0.6964,-0.6862,-0.6857,-0.6726,-0.6691,-0.6604,-0.6526,-0.654,-0.6404,-0.6369,-0.6363,-0.6458,-0.6465,-0.6472,-0.6492,-0.6449,0,0,0,0,0,-0.7692,-0.7605,-0.7441,-0.7373,-0.7322,-0.7185,-0.7127,-0.7051,-0.6936,-0.6891,-0.6783,-0.6675,-0.6578,-0.6518,-0.642,-0.6339,-0.6303,-0.6313,-0.6321,-0.6327,-0.6323,-0.6275,-0.6278,-0.6246,-0.6246,-0.6246,0,0,-0.7727,-0.7611,-0.7564,-0.7396,-0.7305,-0.722,-0.7148,-0.7061,-0.6996,-0.6878,-0.6777,-0.6694,-0.6565,-0.6475,-0.643,-0.6408,-0.6325,-0.6328,-0.6334,-0.6326,-0.6276,-0.6279,-0.6282,-0.6246,-0.6246,-0.6246,0,0,-0.7748,-0.7651,-0.7583,-0.7493,-0.7356,-0.7265,-0.7249,-0.7093,-0.7033,-0.693,-0.6839,-0.6762,-0.6599,-0.6511,-0.6445,-0.6434,-0.637,-0.6406,-0.6443,-0.6398,-0.6401,-0.6402,-0.6399,-0.6399,-0.6403,-0.6403,-0.6404,0,-0.781,-0.7675,-0.7558,-0.7475,-0.7405,-0.7293,-0.7225,-0.7144,-0.6983,-0.6937,-0.6915,-0.6708,-0.6613,-0.6501,-0.6499,-0.6449,-0.6428,-0.6423,-0.6409,-0.641,-0.641,-0.6405,-0.6404,-0.6409,-0.6408,-0.6408,-0.6407,0,-0.7758,-0.7667,-0.763,-0.7475,-0.7401,-0.7327,-0.72,-0.7139,-0.7071,-0.6983,-0.688,-0.6763,-0.664,-0.6608,-0.6541,-0.6487,-0.6477,-0.6434,-0.6396,-0.642,-0.6413,-0.6411,-0.6416,-0.6414,-0.6413,-0.6412,0,0,-0.7852,-0.7634,-0.7622,-0.7551,-0.7391,-0.7319,-0.7241,-0.712,-0.7071,-0.6964,-0.6895,-0.6761,-0.672,-0.6645,-0.6567,-0.6528,-0.6528,-0.6489,-0.6484,-0.65,-0.6461,-0.6495,-0.6494,-0.6485,-0.6484,-0.6483,-0.6472,0,-0.785,-0.7701,-0.7594,-0.7487,-0.7402,-0.7296,-0.7227,-0.7124,-0.704,-0.6957,-0.6865,-0.6772,-0.6725,-0.6679,-0.6636,-0.6537,-0.6518,-0.6536,-0.642,-0.6418,-0.6455,-0.649,-0.6525,-0.652,-0.6469,-0.6468,-0.6468,0,-0.7827,-0.7722,-0.7607,-0.7457,-0.7417,-0.7358,-0.7239,-0.716,-0.7041,-0.6983,-0.6901,-0.6821,-0.6735,-0.6706,-0.6586,-0.6601,-0.6548,-0.6493,-0.649,-0.6474,-0.6444,-0.6476,-0.6516,-0.6515,-0.6463,-0.6463,-0.6463,0,-0.7908,-0.7738,-0.7647,-0.7589,-0.7412,-0.7373,-0.7297,-0.7177,-0.7112,-0.7009,-0.6965,-0.6854,-0.6793,-0.671,-0.6603,-0.6591,-0.6495,-0.6456,-0.6445,-0.6448,-0.6429,-0.6431,-0.6461,-0.6396,-0.6396,-0.6396,-0.6396,0,-0.7916,-0.785,-0.768,-0.7624,-0.7548,-0.7426,-0.7354,-0.727,-0.7165,-0.7092,-0.6994,-0.6928,-0.6791,-0.6709,-0.6625,-0.6539,-0.6513,-0.6464,-0.6443,-0.6473,-0.6479,-0.6435,-0.6433,-0.6395,-0.6396,-0.6396,-0.6396,0,-0.7992,-0.7876,-0.7769,-0.761,-0.7569,-0.752,-0.7384,-0.7327,-0.7239,-0.7148,-0.712,-0.6982,-0.688,-0.6765,-0.6627,-0.657,-0.649,-0.6459,-0.653,-0.6518,-0.6513,-0.6515,-0.6515,-0.6509,-0.645,-0.6451,-0.6451,0,-0.8005,-0.7951,-0.7786,-0.773,-0.7656,-0.7567,-0.7499,-0.7378,-0.7312,-0.7173,-0.7133,-0.7024,-0.693,-0.6774,-0.6662,-0.6556,-0.6521,-0.6528,-0.6504,-0.6536,-0.6521,-0.6525,-0.6519,-0.6535,-0.6536,-0.6537,-0.6538,0,-0.8041,-0.7986,-0.7891,-0.7776,-0.7697,-0.7602,-0.7502,-0.7462,-0.7322,-0.7253,-0.7148,-0.7075,-0.6933,-0.6826,-0.6706,-0.663,-0.6561,-0.6547,-0.6538,-0.6568,-0.6611,-0.6588,-0.6548,-0.6547,-0.6546,-0.6545,-0.6545,-0.6544,-0.8085,-0.8032,-0.7908,-0.7806,-0.7718,-0.7627,-0.7566,-0.7469,-0.7379,-0.7252,-0.7188,-0.7083,-0.6967,-0.6798,-0.6724,-0.6642,-0.6619,-0.6608,-0.6604,-0.6603,-0.6612,-0.6625,-0.662,-0.662,-0.6619,-0.6619,-0.6619,0,-0.8116,-0.803,-0.7937,-0.78,-0.7721,-0.7661,-0.7548,-0.7486,-0.7395,-0.7291,-0.7201,-0.7081,-0.6977,-0.6858,-0.6747,-0.6704,-0.667,-0.6679,-0.6681,-0.6665,-0.6638,-0.6656,-0.6709,-0.6709,-0.6709,-0.6709,-0.6709,-0.6709,-0.8122,-0.8029,-0.796,-0.7824,-0.7739,-0.7635,-0.7576,-0.7493,-0.7409,-0.7278,-0.7191,-0.7114,-0.7004,-0.6885,-0.6788,-0.6755,-0.6719,-0.6738,-0.6697,-0.6674,-0.6666,-0.6659,-0.6675,-0.6731,-0.6731,-0.6729,-0.6729,-0.6729]},{"header":{"parameterUnit":"m.s-1","parameterCategory":1,"la1":30.2991,"la2":30.254,"lo1":-89.0895,"lo2":-89.0444,"dy":0.0017,"dx":0.0017,"nx":28,"ny":28,"refTime":"2024-08-03T09:00:00:Z","depth":0,"parameterNumber":3,"parameterNumberName":"V-component_of_WINDS"},"data":[0,0,0,0,0,0,0,0,0,0,0,0,0,0,0,0,0,0,0,0,0,0,0,0,0,0,0,0,0,0,0,0,0,0,0,0,0,0,0,0,0,0,0,0,0,0,0,0,0,0,0,0,0,0,0,0,0,0,0.0557,0.0555,0,0.0408,0.0406,0.0405,0.05,0.0505,0.0509,0.0514,0.0345,0.0337,0.0328,0,0,0,0,0,0,0,0,0,0,0,0,0,0.0913,0.0906,0.0557,0.0555,0.0553,0.0408,0.0406,0.0404,0.05,0.0505,0.0511,0.0516,0.0348,0.0338,0.0328,0,0,0,0,0,0,0,0,0,0,0,0,0,0.076,0.0904,0.0557,0.0584,0.0585,0.0409,0.0406,0.0404,0.0498,0.0505,0.0512,0.0518,0.0352,0.0339,0.0326,0.0111,0,0,0.0286,0.0281,0,0,0,0,0,0,0,0,0.0769,0.0747,0.0582,0.0582,0.0582,0.048,0.047,0.0305,0.0497,0.0531,0.0514,0.0522,0.0384,0.0368,0.0325,0.0103,0.0096,0.0285,0.0277,0.0272,0.0268,0,0,0,0,0,0,0,0.0779,0.0754,0.0497,0.0579,0.0579,0.06,0.0585,0.0439,0.042,0.0528,0.0535,0.0517,0.0385,0.0337,0.0322,0.0093,0.0286,0.0274,0.0266,0.0261,-0.0307,-0.0314,0,0,0,0,0,0,0.0789,0.0762,0.0502,0.0493,0.0695,0.0588,0.0572,0.0506,0.0423,0.0417,0.0511,0.0522,0.0356,0.0337,0.0316,0.0063,0.0272,0.026,0.0252,-0.03,-0.0309,-0.0316,0,0,0,0,0,0,0.0797,0.0765,0.0508,0.0629,0.0598,0.0575,0.0499,0.0499,0.0452,0.041,0.0406,0.0467,0.0361,0.0335,0.0164,0.0058,0.0254,0.0242,-0.0291,-0.0302,-0.0312,-0.0448,0,0,0,0,0,0,0.0807,0.0767,0.0687,0.0627,0.0592,0.036,0.0493,0.0491,0.0431,0.0444,0.0367,0.0361,0.0364,0.0183,0.0151,0.0044,0.0232,-0.0282,-0.0296,-0.0309,-0.0435,-0.0462,-0.0486,0,0,0,0,0,0.0819,0.065,0.0683,0.0651,0.0492,0.0354,0.0333,0.0345,0.0422,0.0341,0.0315,0.0363,0.0076,0.0164,0.0129,0.0017,-0.0275,-0.0292,-0.0308,-0.0423,-0.0457,-0.0486,0,0,0,0,0,0,0.069,0.0642,0.0678,0.0485,0.0424,0.0371,0.0267,0.0308,0.0219,0.0233,0.0248,0.0229,0.0052,0.0017,0.0117,-0.0193,-0.0088,-0.0112,-0.0164,-0.0196,-0.0222,-0.021,0.0221,0,0,0,0,0,0.0641,0.0537,0.0499,0.0332,0.0301,0.029,0.023,0.0246,0.0181,0.0153,0.0114,0.0046,-0.0059,-0.013,-0.023,-0.0438,-0.0452,-0.0533,-0.0558,-0.0579,-0.0601,-0.0709,-0.0744,-0.037,-0.037,-0.037,0,0,0.0534,0.0495,0.0428,0.0306,0.0261,0.0151,0.0266,0.0144,0.0062,0.0133,-0.0028,-0.0059,-0.0135,-0.0323,-0.0409,-0.0358,-0.0706,-0.06,-0.0617,-0.0627,-0.073,-0.0765,-0.0797,-0.0381,-0.0379,-0.0378,0,0,0.0285,0.0245,0.0106,0.006,-0.0007,-0.0012,-0.0045,-0.0103,-0.0118,-0.0278,-0.0225,-0.0324,-0.0507,-0.0561,-0.0613,-0.0873,-0.083,-0.0906,-0.1042,-0.1148,-0.1177,-0.1203,-0.1294,-0.1327,-0.0927,-0.0927,-0.0928,0,0.016,0.0002,0.0026,-0.0097,-0.0151,-0.0084,-0.0226,-0.0273,-0.0373,-0.0413,-0.0353,-0.0575,-0.0622,-0.082,-0.0882,-0.0928,-0.0965,-0.0898,-0.1174,-0.12,-0.1224,-0.131,-0.1344,-0.0936,-0.0935,-0.0934,-0.0933,0,-0.0147,-0.0257,-0.0363,-0.0451,-0.0517,-0.0651,-0.0648,-0.0718,-0.0695,-0.0707,-0.0869,-0.0921,-0.1027,-0.1073,-0.1056,-0.1268,-0.1233,-0.1175,-0.1069,-0.1269,-0.1349,-0.1382,-0.0948,-0.0945,-0.0943,-0.094,0,0,-0.0487,-0.0552,-0.0591,-0.0627,-0.0693,-0.078,-0.0909,-0.1005,-0.1065,-0.1135,-0.1242,-0.1394,-0.1336,-0.1395,-0.1382,-0.1475,-0.1673,-0.1404,-0.1405,-0.145,-0.1907,-0.195,-0.1988,-0.1644,-0.165,-0.1655,-0.1899,0,-0.0737,-0.0955,-0.0933,-0.1142,-0.1242,-0.1176,-0.1287,-0.1341,-0.1354,-0.1444,-0.146,-0.1566,-0.1484,-0.1518,-0.1607,-0.163,-0.1764,-0.1612,-0.1746,-0.1751,-0.1728,-0.2031,-0.2079,-0.2307,-0.1931,-0.1936,-0.194,0,-0.1059,-0.113,-0.1346,-0.1389,-0.143,-0.1531,-0.1614,-0.17,-0.1759,-0.1762,-0.1822,-0.1791,-0.1922,-0.1812,-0.1991,-0.1888,-0.1941,-0.196,-0.1969,-0.1981,-0.1858,-0.2051,-0.238,-0.2413,-0.199,-0.1986,-0.1982,0,-0.1281,-0.1432,-0.1578,-0.1612,-0.1668,-0.1739,-0.1766,-0.1817,-0.1874,-0.1949,-0.1986,-0.2077,-0.2128,-0.22,-0.2195,-0.2115,-0.2376,-0.2267,-0.2383,-0.2384,-0.2443,-0.2439,-0.2784,-0.2478,-0.2478,-0.2477,-0.2476,0,-0.1563,-0.1698,-0.1678,-0.1769,-0.1917,-0.189,-0.2039,-0.2058,-0.2103,-0.2198,-0.2149,-0.224,-0.2227,-0.2319,-0.2316,-0.2463,-0.2488,-0.2494,-0.2492,-0.2498,-0.2497,-0.2534,-0.2517,-0.2486,-0.2484,-0.2482,-0.2481,0,-0.1838,-0.183,-0.1985,-0.202,-0.2032,-0.214,-0.2172,-0.2258,-0.2263,-0.2384,-0.2411,-0.2422,-0.2526,-0.2526,-0.265,-0.2647,-0.2826,-0.2807,-0.2804,-0.28,-0.2916,-0.2904,-0.3296,-0.3345,-0.3008,-0.3012,-0.3014,0,-0.2018,-0.2118,-0.2161,-0.2216,-0.2245,-0.2339,-0.2393,-0.2371,-0.2431,-0.2501,-0.2579,-0.2677,-0.2754,-0.2924,-0.2946,-0.3038,-0.3019,-0.315,-0.3034,-0.3034,-0.3019,-0.3012,-0.3021,-0.3173,-0.3177,-0.318,-0.3183,0,-0.2337,-0.2325,-0.2404,-0.2479,-0.2544,-0.2605,-0.2661,-0.2711,-0.2694,-0.2765,-0.2867,-0.2926,-0.3044,-0.3143,-0.323,-0.3261,-0.322,-0.3218,-0.3249,-0.3257,-0.325,-0.3253,-0.2865,-0.321,-0.3207,-0.3205,-0.3204,-0.3203,-0.2568,-0.2652,-0.2692,-0.278,-0.2817,-0.2868,-0.2948,-0.296,-0.3042,-0.3133,-0.3115,-0.3229,-0.3281,-0.3391,-0.343,-0.352,-0.3475,-0.3522,-0.3533,-0.3545,-0.3555,-0.3235,-0.3536,-0.3536,-0.3535,-0.3534,-0.3534,0,-0.2882,-0.2902,-0.2983,-0.3057,-0.3126,-0.3072,-0.3129,-0.3192,-0.329,-0.3339,-0.3412,-0.3527,-0.362,-0.3645,-0.3735,-0.3802,-0.3785,-0.3826,-0.3822,-0.3829,-0.3592,-0.3555,-0.3838,-0.3838,-0.3838,-0.3838,-0.3838,-0.3838,-0.3054,-0.319,-0.3183,-0.3337,-0.3358,-0.3462,-0.3499,-0.3546,-0.3583,-0.3711,-0.3785,-0.3798,-0.3837,-0.3928,-0.4011,-0.4016,-0.4051,-0.41,-0.4097,-0.3877,-0.3846,-0.3817,-0.3781,-0.4108,-0.4108,-0.4326,-0.4328,-0.4329]}]]